Regional Weather Roundup
Issued by NWS Grand Forks, ND

Home | Current Version | Previous Version | Graphics & Text | Print | Product List | Glossary On
Versions: 1 2 3 4 5 6 7 8 9 10 11 12 13 14 15 16 17 18 19 20 21 22 23 24 25 26 27 28 29 30 31 32 33 34 35 36 37 38 39 40 41 42 43 44 45 46 47 48 49 50
000
ASUS43 KFGF 290931
RWRFGF
PRAIRIE TO PINES  WEATHER ROUNDUP
NATIONAL WEATHER SERVICE EASTERN NORTH DAKOTA/GRAND FORKS ND
400 AM CDT FRI AUG 29 2014

 **SATELLITE DATA USED TO AUGMENT SKY COVER AT AUTOMATED STATIONS**
 *****  WEATHER ACROSS EASTERN NORTH DAKOTA  *****

CITY           SKY/WX    TMP DP  RH WIND       PRES   REMARKS
GRAND FORKS    CLOUDY    67  64  90 S8        29.77F
GRAND FRKS AFB CLOUDY    66  66 100 SW9       29.79F
GRAND FRKS NWS   N/A     64 N/A N/A S5          N/A
DEVILS LAKE    CLOUDY    66  61  82 S13       29.76F
FARGO          CLOUDY    66  64  93 S6        29.79S
WAHPETON ARPT  CLOUDY    64  63  94 SE7       29.78F
$$

 ***** WEATHER ACROSS CENTRAL AND WESTERN NORTH DAKOTA  *****

CITY           SKY/WX    TMP DP  RH WIND       PRES   REMARKS
BISMARCK       MOCLDY    60  60 100 W5        29.81R
MINOT          PTCLDY    67  62  84 SW12      29.73R
JAMESTOWN      FOG       65  64  97 S6        29.79S VSB 1/2
MINOT AFB      CLEAR     64  64  99 W22       29.73R
GARRISON         N/A     64  63  96 S8        29.74F
WILLISTON      MOCLDY    65  53  65 N20G29    29.86R
DICKINSON      PTCLDY    58  54  86 S6        29.79F
HETTINGER      FOG       54  52  93 CALM      29.84S VSB 1
$$

 *****  OTHER AIRPORT OBSERVATIONS IN OUR AREA  *****

CITY           SKY/WX    TMP DP  RH WIND       PRES   REMARKS
WALHALLA         N/A     66  66 100 CALM      29.78S
GRAFTON AIRPOR CLOUDY    66  64  94 SW12      29.78R
VALLEY CITY AR CLOUDY    64  64 100 CALM      29.79F FOG
CANDO          CLOUDY    64  64 100 S8        29.76F
CAVALIER APRT  CLOUDY    68  64  88 W3        29.78R
GWINNER        CLOUDY    64  64 100 CALM      29.80S VSB 3/4
SHEYENNE NWR     N/A     65  65  99 S2        29.95
ROLLA          CLOUDY    64  64 100 CALM      29.78S FOG
 ***** THE ABOVE OBSERVATIONS ARE NON NWS ARE NOT QUALITY
       CONTROLLED AND MAY MIS-REPORT RAIN FOR SNOW...
$$

  *****  WEATHER ACROSS NORTHERN MINNESOTA  *****

CITY           SKY/WX    TMP DP  RH WIND       PRES   REMARKS
FLAG ISLAND    CLOUDY    66  63  88 S7        29.79F
WARROAD        MOCLDY    63  59  88 S5        29.81F
ROSEAU         MOCLDY    64  59  82 S7        29.80F
HALLOCK        CLOUDY    66  64  94 SW9       29.78S
THF RVR FALLS  CLOUDY    63  61  94 SE5       29.81F
BAUDETTE       CLOUDY    63  61  93 CALM      29.83F
WASKISH        CLOUDY    64  61  88 CALM      29.83F
CROOKSTON      CLOUDY    64  63  94 S5        29.80F
$$
  *****  WEATHER ACROSS CENTRAL AND WEST MINNESOTA  *****

CITY           SKY/WX    TMP DP  RH WIND       PRES   REMARKS
FOSSTON        LGT RAIN  63  61  94 CALM      29.82F
BEMIDJI        LGT RAIN  63  62  96 CALM      29.83S
PARK RAPIDS    LGT RAIN  64  63  96 SE5       29.82F FOG
ELBOW LAKE     FOG       64  64  99 SE7       29.79F VSB 1/2
WADENA         DRIZZLE   63  63 100 SE5       29.81S
DETROIT LAKES  DRIZZLE   64  63  94 SE5       29.82S
MOORHEAD       CLOUDY    66  66 100 CALM      29.80S
FERGUS FALLS   CLOUDY    66  64  94 SE7       29.79F FOG
MORRIS MN      FOG       64  64 100 CALM      29.78F VSB 3/4
STAPLES        CLOUDY    63  63 100 CALM      29.82S FOG
$$
  *****  WEATHER ELSEWHERE ACROSS MINNESOTA  *****

CITY           SKY/WX    TMP DP  RH WIND       PRES   REMARKS
DULUTH         CLOUDY    61  57  87 E7        29.87F
INTRNTL FALLS  CLOUDY    59  58  96 SE3       29.85F
ELY            CLOUDY    59  54  82 CALM      29.90R
CLOQUET        CLOUDY    61  59  94 E3        29.87S FOG
WHEATON        CLOUDY    63  63 100 SE7       29.80F FOG
BRAINERD       CLOUDY    63  62  97 SE3       29.82F FOG
HIBBING        CLOUDY    60  57  89 E3        29.87F
ALEXANDRIA     CLOUDY    64  63  96 E5        29.81F FOG
SAINT CLOUD    CLOUDY    67  65  93 E6        29.79F FOG
MINNEAPOLIS    CLOUDY    67  66  97 SE10      29.82S
$$

  *****  WEATHER ACROSS SOUTH DAKOTA  *****

CITY           SKY/WX    TMP DP  RH WIND       PRES   REMARKS
SIOUX FALLS    CLOUDY    71  69  93 SW5       29.77F
BROOKINGS      NOT AVBL
WATERTOWN      FOG       66  66 100 CALM      29.79F VSB 3/4
HURON          CLOUDY    69  67  93 E3        29.77S FOG
SISSETON         N/A     65  65 100 CALM      29.78S
ABERDEEN       CLOUDY    65  65 100 N3        29.79S
MITCHELL       CLOUDY    69  69 100 W6        29.77R FOG
PIERRE         FOG       64  64 100 N5        29.80S VSB 3/4
MOBRIDGE       FOG       64  64 100 S5        29.79S VSB 3/4
RAPID CITY     CLEAR     59  52  77 W9        29.89S
$$

  *****  SOME WEATHER IN NEARBY STATES *****

CITY           SKY/WX    TMP DP  RH WIND       PRES   REMARKS
GLASGOW MT     CLOUDY    60  57  89 NW3       29.94R
GREAT FALLS MT CLEAR     51  49  92 SW9       30.09F
CHEYENNE WY    CLEAR     53  42  66 NW9       30.12S
SCOTTSBLUFF NE CLEAR     50  49  96 N5        29.98F
OMAHA NE       CLOUDY    72  68  87 SE7       29.80F
DES MOINES IA  CLOUDY    69  66  90 SE7       29.86F
DAVENPORT IA   MOCLDY    70  67  90 S7        29.93F
CHICAGO IL     CLOUDY    71  63  75 S7        29.97S
EAU CLAIRE WI  HVY RAIN  59  58  96 E6        29.90S FOG
LA CROSSE WI   CLOUDY    66  62  87 E8        29.89F
$$

  *****  SOME NATIONAL WEATHER *****

CITY           SKY/WX    TMP DP  RH WIND       PRES   REMARKS
LA GUARDIA NY  CLEAR     65  51  60 NE8       30.10R
RALEIGH NC     MOCLDY    73  70  88 NE5       30.05R
ATLANTA GA     PTCLDY    70  59  68 CALM      30.04S
NEW ORLEANS LA PTCLDY    79  73  82 CALM      29.93F
OKLAHOMA CITY  CLOUDY    69  64  84 W7        29.91S
ALBUQUERQUE NM CLEAR     62  44  51 E6        30.15R
SALT LAKE CITY CLEAR     65  44  46 SE9       30.07S
LOS ANGELES CA CLEAR     67  62  84 W5        29.89F
BOISE ID       CLEAR     66  41  40 SW5       29.96S
SEATTLE WA     MOCLDY    61  57  88 S3        30.00F
$$

*** WEATHER ACROSS MANITOBA...SASKATCHEWAN AND ONTARIO ***
                ***ONTARIO***

CITY           SKY/WX    TMP DP  RH WIND       PRES   REMARKS
GERALDTON      PTCLDY    52  46  82 S7        29.96F
THUNDER BAY    CLOUDY    54  52  94 NE2       29.93F
SIOUX LOOKOUT  CLOUDY    64  59  82 S6        29.83F
TORONTO        PTCLDY    54  48  82 N6        30.16S
BIG TROUT LK   MOCLDY    63  59  88 W7        29.65R
PICKLE LAKE    NOT AVBL
DRYDEN         MOCLDY    64  59  82 S10       29.83F
KENORA         CLOUDY    66  61  82 SW10G18   29.81F
$$
                *** MANITOBA***

CITY           SKY/WX    TMP DP  RH WIND       PRES   REMARKS
BRANDON        PTCLDY    61  61 100 E9        29.77R
DAUPHIN        CLOUDY    61  57  88 N12       29.80F
ISLAND LAKE    NOT AVBL
PILOT MOUND      N/A     66  64  94 SE3         N/A
THE PAS        PTCLDY    54  45  71 NW14G20   29.87R
THOMPSON       NOT AVBL
WINNIPEG       MOCLDY    68  64  88 S13       29.76F
LYNN LAKE      CLEAR     46  45  93 MISG      29.84R
CHURCHILL      CLOUDY    50  46  87 N9        29.66R
GILLAM         MOCLDY    54  54 100 W6        29.67R
$$
                ***SASKATCHEWAN***

CITY           SKY/WX    TMP DP  RH WIND       PRES   REMARKS
ESTEVAN        MOCLDY    59  57  94 NW8       29.84S
KINDERSLEY     MOCLDY    46  45  93 NW2       30.02R
LLOYDMINSTER   CLEAR     45  41  87 SE2       30.00S
PRINCE ALBERT  CLEAR     41  39  93 N6        29.99R
REGINA         CLOUDY    57  54  88 N9        29.93R
YORKTON        LGT RAIN  57  54  88 N10       29.90R
N. BATTLEFORD  CLEAR     39  39 100 CALM      30.03R
LA RONGE       CLEAR     36  34  93 W3        29.97R
SASKATOON      PTCLDY    48  46  93 NE7       30.00R
SWIFT CURRENT  CLOUDY    52  50  93 W9        30.00R
$$
NOTE: THESE ARE AUTOMATED STATIONS WITH LIMITED QUALITY CONTROL
      "FAIR" INDICATES FEW OR NO CLOUDS BELOW 12,000 FEET WITH NO
      SIGNIFICANT WEATHER AND/OR OBSTRUCTIONS TO VISIBILITY.
      SKY/WX - SKY CONDITION AND SIGNIFICANT WEATHER.
      TMP - AIR TEMPERATURE.    DP   - DEWPOINT TEMPERATURE.
      RH  - RELATIVE HUMIDITY.  PRES - PRESSURE.
      HX  - HEAT INDEX.         WCI  - WIND CHILL INDEX.
$


USA.gov is the U.S. government's official web portal to all federal, state and local government web resources and services.